When you browse on this site, cookies collect data to enhance your experience and personalize the content and advertising you see.
Visit our Privacy Policy to learn more. By continuing to use the site, you agree to this use of cookies and data.
  • In Sweden
  • List of Countries
  • For 7 days
  • Water Temperature
  • Weather Map
  • Weather Widgets
  • user-avatar
    Login

    Hourly Weather Acapulco

    Today, 23 February, Sunday

    Time Temperature Precipitation Wind Pressure Humidity
    00:00 +25°C° 0 mm 1 mps 757 mmHg 75%
    01:00 +25°C° 0 mm 1 mps 757 mmHg 73%
    02:00 +25°C° 0 mm 1 mps 757 mmHg 71%
    03:00 +25°C° 0 mm 1 mps 757 mmHg 70%
    04:00 +24°C° 0 mm 1 mps 757 mmHg 68%
    05:00 +24°C° 0 mm 1 mps 757 mmHg 67%
    06:00 +26°C° 0 mm 1 mps 757 mmHg 62%
    07:00 +29°C° 0 mm 1 mps 758 mmHg 57%
    08:00 +31°C° 0 mm 1 mps 759 mmHg 51%
    09:00 +32°C° 0 mm 2 mps 758 mmHg 50%
    10:00 +34°C° 0 mm 3 mps 758 mmHg 49%
    11:00 +35°C° 0 mm 4 mps 758 mmHg 47%
    12:00 +35°C° 0 mm 4 mps 757 mmHg 48%
    13:00 +35°C° 0 mm 5 mps 756 mmHg 50%
    14:00 +35°C° 0 mm 6 mps 755 mmHg 51%
    15:00 +33°C° 0 mm 5 mps 755 mmHg 56%
    16:00 +32°C° 0 mm 5 mps 755 mmHg 60%
    17:00 +30°C° 0 mm 5 mps 754 mmHg 65%
    18:00 +28°C° 0 mm 4 mps 755 mmHg 72%
    19:00 +27°C° 0 mm 4 mps 756 mmHg 79%
    20:00 +25°C° 0 mm 3 mps 756 mmHg 86%
    21:00 +25°C° 0 mm 3 mps 756 mmHg 86%
    22:00 +25°C° 0 mm 2 mps 756 mmHg 86%
    23:00 +24°C° 0 mm 2 mps 756 mmHg 86%

    Tomorrow, 24 February, Monday

    Time Temperature Precipitation Wind Pressure Humidity
    00:00 +24°C° 0 mm 2 mps 755 mmHg 86%
    01:00 +24°C° 0 mm 2 mps 755 mmHg 87%
    02:00 +24°C° 0 mm 2 mps 755 mmHg 87%
    03:00 +24°C° 0 mm 2 mps 754 mmHg 87%
    04:00 +24°C° 0 mm 1 mps 754 mmHg 88%
    05:00 +23°C° 0 mm 1 mps 754 mmHg 88%
    06:00 +25°C° 0 mm 1 mps 755 mmHg 81%
    07:00 +27°C° 0 mm 1 mps 755 mmHg 74%
    08:00 +29°C° 0 mm 1 mps 756 mmHg 66%
    09:00 +31°C° 0 mm 1 mps 756 mmHg 61%
    10:00 +32°C° 0 mm 2 mps 755 mmHg 56%
    11:00 +35°C° 0 mm 2 mps 755 mmHg 51%
    12:00 +34°C° 0 mm 3 mps 754 mmHg 52%
    13:00 +34°C° 0 mm 3 mps 754 mmHg 54%
    14:00 +34°C° 0 mm 4 mps 753 mmHg 56%
    15:00 +33°C° 0 mm 3 mps 753 mmHg 61%
    16:00 +30°C° 0 mm 3 mps 753 mmHg 65%
    17:00 +29°C° 0 mm 3 mps 753 mmHg 70%
    18:00 +28°C° 0 mm 2 mps 753 mmHg 77%
    19:00 +26°C° 0 mm 2 mps 754 mmHg 84%
    20:00 +25°C° 0 mm 2 mps 755 mmHg 91%
    21:00 +25°C° 0 mm 2 mps 755 mmHg 91%
    22:00 +24°C° 0 mm 2 mps 755 mmHg 91%
    23:00 +24°C° 0 mm 1 mps 755 mmHg 92%

    Day after tomorrow, 25 February, Tuesday

    Time Temperature Precipitation Wind Pressure Humidity
    00:00 +24°C° 0 mm 1 mps 754 mmHg 92%
    01:00 +24°C° 0 mm 1 mps 754 mmHg 92%
    02:00 +24°C° 0 mm 1 mps 754 mmHg 92%
    03:00 +24°C° 0 mm 1 mps 754 mmHg 92%
    04:00 +23°C° 0 mm 1 mps 754 mmHg 92%
    05:00 +23°C° 0 mm 1 mps 754 mmHg 91%
    06:00 +25°C° 0 mm 1 mps 754 mmHg 83%
    07:00 +27°C° 0 mm 1 mps 755 mmHg 74%
    08:00 +29°C° 0 mm 1 mps 756 mmHg 66%
    09:00 +30°C° 0 mm 2 mps 755 mmHg 59%
    10:00 +32°C° 0 mm 2 mps 755 mmHg 52%
    11:00 +34°C° 0 mm 3 mps 755 mmHg 45%
    12:00 +34°C° 0 mm 4 mps 754 mmHg 47%
    13:00 +33°C° 0 mm 5 mps 754 mmHg 49%
    14:00 +33°C° 0 mm 5 mps 753 mmHg 52%
    15:00 +32°C° 0 mm 5 mps 753 mmHg 57%
    16:00 +30°C° 0 mm 4 mps 753 mmHg 62%
    17:00 +28°C° 0 mm 4 mps 753 mmHg 67%
    18:00 +27°C° 0 mm 4 mps 754 mmHg 75%
    19:00 +25°C° 0 mm 3 mps 754 mmHg 83%
    20:00 +24°C° 0 mm 3 mps 755 mmHg 91%
    21:00 +22°C° 0 mm 3 mps 755 mmHg 91%
    22:00 +22°C° 0 mm 3 mps 755 mmHg 90%
    23:00 +22°C° 0 mm 3 mps 755 mmHg 90%

    26 February, Wednesday

    Time Temperature Precipitation Wind Pressure Humidity
    00:00 +23°C° 0 mm 2 mps 755 mmHg 90%
    01:00 +23°C° 0 mm 2 mps 755 mmHg 90%
    02:00 +21°C° 0 mm 2 mps 754 mmHg 90%
    03:00 +21°C° 0 mm 2 mps 755 mmHg 89%
    04:00 +21°C° 0 mm 2 mps 755 mmHg 89%
    05:00 +21°C° 0 mm 2 mps 755 mmHg 89%
    06:00 +24°C° 0 mm 1 mps 755 mmHg 79%
    07:00 +26°C° 0 mm 1 mps 756 mmHg 69%
    08:00 +29°C° 0 mm 1 mps 756 mmHg 59%
    09:00 +30°C° 0 mm 2 mps 756 mmHg 53%
    10:00 +32°C° 0 mm 2 mps 756 mmHg 48%
    11:00 +34°C° 0 mm 2 mps 756 mmHg 42%
    12:00 +34°C° 0 mm 3 mps 755 mmHg 44%
    13:00 +34°C° 0 mm 3 mps 754 mmHg 46%
    14:00 +33°C° 0 mm 4 mps 753 mmHg 49%
    15:00 +31°C° 0 mm 3 mps 753 mmHg 53%
    16:00 +30°C° 0 mm 3 mps 753 mmHg 57%
    17:00 +29°C° 0 mm 2 mps 754 mmHg 61%
    18:00 +27°C° 0 mm 2 mps 754 mmHg 69%
    19:00 +25°C° 0 mm 2 mps 755 mmHg 77%
    20:00 +23°C° 0 mm 1 mps 756 mmHg 85%
    21:00 +23°C° 0 mm 1 mps 756 mmHg 84%
    22:00 +23°C° 0 mm 1 mps 756 mmHg 83%
    23:00 +23°C° 0 mm 1 mps 757 mmHg 81%

    27 February, Thursday

    Time Temperature Precipitation Wind Pressure Humidity
    00:00 +23°C° 0 mm 1 mps 756 mmHg 78%
    01:00 +23°C° 0 mm 1 mps 756 mmHg 75%
    02:00 +23°C° 0 mm 1 mps 756 mmHg 73%
    03:00 +24°C° 0 mm 1 mps 756 mmHg 68%
    04:00 +24°C° 0 mm 1 mps 756 mmHg 64%
    05:00 +24°C° 0 mm 1 mps 756 mmHg 59%
    06:00 +26°C° 0 mm 1 mps 757 mmHg 52%
    07:00 +28°C° 0 mm 1 mps 757 mmHg 45%
    08:00 +29°C° 0 mm 0 mps 758 mmHg 37%
    09:00 +33°C° 0 mm 1 mps 758 mmHg 35%
    10:00 +34°C° 0 mm 1 mps 757 mmHg 33%
    11:00 +37°C° 0 mm 2 mps 757 mmHg 30%
    12:00 +37°C° 0 mm 3 mps 756 mmHg 33%
    13:00 +36°C° 0 mm 4 mps 755 mmHg 37%
    14:00 +36°C° 0 mm 5 mps 755 mmHg 40%
    15:00 +34°C° 0 mm 4 mps 755 mmHg 46%
    16:00 +33°C° 0 mm 4 mps 755 mmHg 51%
    17:00 +30°C° 0 mm 3 mps 755 mmHg 57%
    18:00 +28°C° 0 mm 3 mps 756 mmHg 65%
    19:00 +27°C° 0 mm 3 mps 756 mmHg 73%
    20:00 +25°C° 0 mm 3 mps 757 mmHg 81%
    21:00 +25°C° 0 mm 2 mps 757 mmHg 79%
    22:00 +24°C° 0 mm 2 mps 757 mmHg 77%
    23:00 +24°C° 0 mm 1 mps 758 mmHg 75%

    28 February, Friday

    Time Temperature Precipitation Wind Pressure Humidity
    00:00 +24°C° 0 mm 2 mps 758 mmHg 74%
    01:00 +24°C° 0 mm 2 mps 757 mmHg 73%
    02:00 +24°C° 0 mm 2 mps 757 mmHg 71%
    03:00 +24°C° 0 mm 1 mps 757 mmHg 68%
    04:00 +24°C° 0 mm 1 mps 757 mmHg 65%
    05:00 +24°C° 0 mm 1 mps 757 mmHg 62%
    06:00 +27°C° 0 mm 1 mps 757 mmHg 55%
    07:00 +29°C° 0 mm 1 mps 758 mmHg 48%
    08:00 +32°C° 0 mm 1 mps 759 mmHg 42%
    09:00 +33°C° 0 mm 1 mps 758 mmHg 40%
    10:00 +35°C° 0 mm 2 mps 758 mmHg 38%
    11:00 +37°C° 0 mm 3 mps 758 mmHg 37%
    12:00 +36°C° 0 mm 4 mps 757 mmHg 39%
    13:00 +36°C° 0 mm 4 mps 756 mmHg 41%
    14:00 +35°C° 0 mm 4 mps 755 mmHg 43%
    15:00 +34°C° 0 mm 4 mps 755 mmHg 47%
    16:00 +33°C° 0 mm 4 mps 755 mmHg 51%
    17:00 +31°C° 0 mm 3 mps 755 mmHg 54%
    18:00 +29°C° 0 mm 3 mps 756 mmHg 61%
    19:00 +28°C° 0 mm 2 mps 757 mmHg 67%
    20:00 +26°C° 0 mm 2 mps 757 mmHg 73%
    21:00 +26°C° 0 mm 2 mps 758 mmHg 72%
    22:00 +26°C° 0 mm 1 mps 758 mmHg 71%
    23:00 +25°C° 0 mm 1 mps 758 mmHg 70%
    Show more